Time,TemperatureF,DewpointF,PressureIn,WindDirection,WindDirectionDegrees,WindSpeedMPH,WindSpeedGustMPH,Humidity,HourlyPrecipIn,Conditions,Clouds,dailyrainin,SoftwareType,DateUTC
2013-07-06 00:02:00,76.0,72.0,30.18,South,177,0.0,4.0,88,0.00,,,0.00,,2013-07-06 04:02:00,
2013-07-06 00:12:00,76.0,72.0,30.18,South,174,0.0,1.0,88,0.00,,,0.00,,2013-07-06 04:12:00,
2013-07-06 00:22:00,76.0,73.0,30.18,South,174,0.0,1.0,89,0.00,,,0.00,,2013-07-06 04:22:00,
2013-07-06 00:43:00,75.0,72.0,30.18,South,172,0.0,4.0,90,0.00,,,0.00,,2013-07-06 04:43:00,
2013-07-06 00:53:00,75.0,72.0,30.18,South,172,0.0,0.0,91,0.00,,,0.00,,2013-07-06 04:53:00,
2013-07-06 01:02:00,75.0,72.0,30.17,South,172,0.0,2.0,91,0.00,,,0.00,,2013-07-06 05:02:00,
2013-07-06 01:12:00,75.0,73.0,30.17,South,172,0.0,1.0,92,0.00,,,0.00,,2013-07-06 05:12:00,
2013-07-06 01:22:00,75.0,73.0,30.17,South,172,0.0,2.0,92,0.00,,,0.00,,2013-07-06 05:22:00,
2013-07-06 01:33:00,74.0,72.0,30.16,South,172,0.0,2.0,93,0.00,,,0.00,,2013-07-06 05:33:00,
2013-07-06 01:43:00,74.0,72.0,30.16,South,172,0.0,2.0,93,0.00,,,0.00,,2013-07-06 05:43:00,
2013-07-06 01:53:00,74.0,72.0,30.16,South,172,0.0,3.0,93,0.00,,,0.00,,2013-07-06 05:53:00,
2013-07-06 02:02:00,74.0,72.0,30.15,South,172,0.0,2.0,94,0.00,,,0.00,,2013-07-06 06:02:00,
2013-07-06 02:12:00,74.0,72.0,30.15,South,172,0.0,1.0,94,0.00,,,0.00,,2013-07-06 06:12:00,
2013-07-06 02:22:00,74.0,72.0,30.15,South,172,0.0,0.0,94,0.00,,,0.00,,2013-07-06 06:22:00,
2013-07-06 02:34:00,74.0,72.0,30.15,South,172,0.0,3.0,95,0.00,,,0.00,,2013-07-06 06:34:00,
2013-07-06 02:43:00,74.0,72.0,30.15,South,172,0.0,2.0,95,0.00,,,0.00,,2013-07-06 06:43:00,
2013-07-06 02:53:00,74.0,72.0,30.15,South,172,0.0,3.0,95,0.00,,,0.00,,2013-07-06 06:53:00,
2013-07-06 03:02:00,73.0,71.0,30.15,South,172,0.0,3.0,95,0.00,,,0.00,,2013-07-06 07:02:00,
2013-07-06 03:12:00,73.0,72.0,30.15,South,172,0.0,2.0,96,0.00,,,0.00,,2013-07-06 07:12:00,
2013-07-06 03:22:00,73.0,72.0,30.15,South,172,0.0,3.0,96,0.00,,,0.00,,2013-07-06 07:22:00,
2013-07-06 03:33:00,73.0,72.0,30.14,South,172,0.0,2.0,96,0.00,,,0.00,,2013-07-06 07:33:00,
2013-07-06 03:44:00,73.0,72.0,30.14,South,172,0.0,1.0,96,0.00,,,0.00,,2013-07-06 07:44:00,
2013-07-06 03:52:00,73.0,72.0,30.14,South,172,0.0,0.0,96,0.00,,,0.00,,2013-07-06 07:52:00,
2013-07-06 04:02:00,73.0,72.0,30.14,South,172,0.0,1.0,96,0.00,,,0.00,,2013-07-06 08:02:00,
2013-07-06 04:22:00,73.0,72.0,30.15,South,172,0.0,0.0,96,0.00,,,0.00,,2013-07-06 08:22:00,
2013-07-06 04:34:00,73.0,72.0,30.15,South,170,0.0,4.0,97,0.00,,,0.00,,2013-07-06 08:34:00,
2013-07-06 04:54:00,73.0,72.0,30.15,South,174,0.0,3.0,97,0.00,,,0.00,,2013-07-06 08:54:00,
2013-07-06 05:02:00,73.0,72.0,30.15,South,174,0.0,4.0,97,0.00,,,0.00,,2013-07-06 09:02:00,
2013-07-06 05:22:00,73.0,72.0,30.15,South,176,0.0,0.0,97,0.00,,,0.00,,2013-07-06 09:22:00,
2013-07-06 05:33:00,73.0,72.0,30.15,South,176,0.0,1.0,97,0.00,,,0.00,,2013-07-06 09:33:00,
2013-07-06 05:43:00,73.0,72.0,30.15,South,176,0.0,0.0,97,0.00,,,0.00,,2013-07-06 09:43:00,
2013-07-06 05:52:00,73.0,72.0,30.16,South,176,0.0,0.0,97,0.00,,,0.00,,2013-07-06 09:52:00,
2013-07-06 06:02:00,73.0,72.0,30.16,South,176,0.0,0.0,97,0.00,,,0.00,,2013-07-06 10:02:00,
2013-07-06 06:11:00,73.0,72.0,30.16,South,176,0.0,0.0,97,0.00,,,0.00,,2013-07-06 10:11:00,
2013-07-06 06:42:00,73.0,72.0,30.16,South,176,0.0,2.0,97,0.00,,,0.00,,2013-07-06 10:42:00,
2013-07-06 06:53:00,73.0,72.0,30.16,ENE,70,0.0,1.0,97,0.00,,,0.00,,2013-07-06 10:53:00,
2013-07-06 07:01:00,73.0,72.0,30.17,ENE,70,0.0,1.0,98,0.00,,,0.00,,2013-07-06 11:01:00,
2013-07-06 07:11:00,73.0,72.0,30.17,ENE,70,0.0,0.0,98,0.00,,,0.00,,2013-07-06 11:11:00,
2013-07-06 07:22:00,73.0,72.0,30.17,ENE,70,0.0,0.0,98,0.00,,,0.00,,2013-07-06 11:22:00,
2013-07-06 07:33:00,73.0,72.0,30.17,ENE,70,0.0,2.0,98,0.00,,,0.00,,2013-07-06 11:33:00,
2013-07-06 07:43:00,73.0,72.0,30.18,ENE,70,0.0,0.0,97,0.00,,,0.00,,2013-07-06 11:43:00,
2013-07-06 07:53:00,73.0,72.0,30.18,ENE,70,0.0,0.0,97,0.00,,,0.00,,2013-07-06 11:53:00,
2013-07-06 08:01:00,74.0,73.0,30.18,ENE,70,0.0,0.0,97,0.00,,,0.00,,2013-07-06 12:01:00,
2013-07-06 08:22:00,74.0,73.0,30.18,ENE,70,0.0,0.0,97,0.00,,,0.00,,2013-07-06 12:22:00,
2013-07-06 08:33:00,75.0,74.0,30.18,ENE,70,0.0,0.0,97,0.00,,,0.00,,2013-07-06 12:33:00,
2013-07-06 08:43:00,75.0,74.0,30.18,ENE,70,0.0,1.0,96,0.00,,,0.00,,2013-07-06 12:43:00,
2013-07-06 08:52:00,75.0,73.0,30.18,ESE,108,0.0,1.0,94,0.00,,,0.00,,2013-07-06 12:52:00,
2013-07-06 09:01:00,75.0,73.0,30.19,SSE,152,0.0,2.0,93,0.00,,,0.00,,2013-07-06 13:01:00,
2013-07-06 09:52:00,78.0,73.0,30.19,West,268,0.0,6.0,84,0.00,,,0.00,,2013-07-06 13:52:00,
2013-07-06 10:02:00,79.0,73.0,30.18,SSW,201,0.0,4.0,83,0.00,,,0.00,,2013-07-06 14:02:00,
2013-07-06 10:12:00,79.0,73.0,30.18,SSW,200,0.0,2.0,83,0.00,,,0.00,,2013-07-06 14:12:00,
2013-07-06 10:22:00,78.0,72.0,30.18,SSW,212,0.0,3.0,83,0.00,,,0.00,,2013-07-06 14:22:00,
2013-07-06 10:34:00,80.0,74.0,30.18,SSW,211,0.0,0.0,81,0.00,,,0.00,,2013-07-06 14:34:00,
2013-07-06 10:42:00,81.0,72.0,30.18,WSW,248,1.0,5.0,75,0.00,,,0.00,,2013-07-06 14:42:00,
2013-07-06 10:53:00,81.0,72.0,30.18,SW,225,0.0,4.0,73,0.00,,,0.00,,2013-07-06 14:53:00,
2013-07-06 11:02:00,82.0,72.0,30.18,SSW,205,2.0,5.0,71,0.00,,,0.00,,2013-07-06 15:02:00,
2013-07-06 11:22:00,83.0,71.0,30.18,SSE,147,5.0,9.0,68,0.00,,,0.00,,2013-07-06 15:22:00,
2013-07-06 11:43:00,84.0,72.0,30.18,South,187,3.0,7.0,67,0.00,,,0.00,,2013-07-06 15:43:00,
2013-07-06 11:53:00,84.0,72.0,30.18,South,178,4.0,8.0,68,0.00,,,0.00,,2013-07-06 15:53:00,
2013-07-06 12:28:00,85.0,72.0,30.17,South,188,0.0,6.0,65,0.00,,,0.00,,2013-07-06 16:28:00,
2013-07-06 12:46:00,85.0,72.0,30.17,SW,214,3.0,7.0,65,0.00,,,0.00,,2013-07-06 16:46:00,
2013-07-06 12:56:00,85.0,72.0,30.17,South,178,0.0,7.0,65,0.00,,,0.00,,2013-07-06 16:56:00,
2013-07-06 13:02:00,86.0,73.0,30.17,South,170,0.0,4.0,66,0.00,,,0.00,,2013-07-06 17:02:00,
2013-07-06 13:34:00,86.0,73.0,30.16,SSE,157,4.0,8.0,66,0.00,,,0.00,,2013-07-06 17:34:00,
2013-07-06 13:44:00,86.0,73.0,30.16,SSE,162,3.0,9.0,65,0.00,,,0.00,,2013-07-06 17:44:00,
2013-07-06 14:02:00,87.0,71.0,30.15,SSE,149,2.0,7.0,60,0.00,,,0.00,,2013-07-06 18:02:00,
2013-07-06 14:26:00,84.0,73.0,30.15,North,360,0.0,2.0,69,0.00,,,0.00,,2013-07-06 18:26:00,
2013-07-06 14:36:00,83.0,72.0,30.14,North,360,0.0,1.0,70,0.00,,,0.00,,2013-07-06 18:36:00,
2013-07-06 14:47:00,83.0,73.0,30.14,NNW,347,0.0,1.0,73,0.00,,,0.00,,2013-07-06 18:47:00,
2013-07-06 14:56:00,83.0,73.0,30.14,WNW,299,0.0,3.0,73,0.00,,,0.00,,2013-07-06 18:56:00,
2013-07-06 15:15:00,85.0,74.0,30.12,South,172,1.0,3.0,69,0.00,,,0.00,,2013-07-06 19:15:00,
2013-07-06 15:46:00,87.0,72.0,30.11,South,184,2.0,7.0,61,0.00,,,0.00,,2013-07-06 19:46:00,
2013-07-06 15:54:00,87.0,73.0,30.11,SE,143,0.0,7.0,64,0.00,,,0.00,,2013-07-06 19:54:00,
2013-07-06 17:14:00,88.0,72.0,30.08,SSE,159,6.0,11.0,60,0.00,,,0.00,,2013-07-06 21:14:00,
2013-07-06 17:35:00,86.0,71.0,30.08,SE,138,3.0,9.0,62,0.00,,,0.00,,2013-07-06 21:35:00,
2013-07-06 18:46:00,85.0,71.0,30.07,SSE,150,3.0,10.0,64,0.00,,,0.00,,2013-07-06 22:46:00,
2013-07-06 18:55:00,84.0,73.0,30.07,SSE,160,3.0,9.0,69,0.00,,,0.00,,2013-07-06 22:55:00,
2013-07-06 19:02:00,84.0,73.0,30.07,SE,135,3.0,10.0,69,0.00,,,0.00,,2013-07-06 23:02:00,
2013-07-06 19:13:00,84.0,73.0,30.07,SSE,153,4.0,11.0,69,0.00,,,0.00,,2013-07-06 23:13:00,
2013-07-06 19:25:00,84.0,72.0,30.07,South,183,3.0,11.0,67,0.00,,,0.00,,2013-07-06 23:25:00,
2013-07-06 19:33:00,84.0,72.0,30.07,SSE,160,0.0,7.0,68,0.00,,,0.00,,2013-07-06 23:33:00,
2013-07-06 19:48:00,84.0,72.0,30.07,SSW,201,1.0,9.0,68,0.00,,,0.00,,2013-07-06 23:48:00,
2013-07-06 20:03:00,82.0,72.0,30.08,SSE,168,0.0,1.0,73,0.00,,,0.00,,2013-07-07 00:03:00,
2013-07-06 20:19:00,82.0,72.0,30.08,South,169,0.0,4.0,73,0.00,,,0.00,,2013-07-07 00:19:00,
2013-07-06 20:26:00,82.0,73.0,30.08,South,169,0.0,1.0,75,0.00,,,0.00,,2013-07-07 00:26:00,
2013-07-06 20:33:00,81.0,73.0,30.08,South,169,0.0,1.0,76,0.00,,,0.00,,2013-07-07 00:33:00,
2013-07-06 20:56:00,81.0,73.0,30.08,South,169,0.0,1.0,76,0.00,,,0.00,,2013-07-07 00:56:00,
2013-07-06 21:02:00,81.0,73.0,30.08,South,169,0.0,1.0,76,0.00,,,0.00,,2013-07-07 01:02:00,
2013-07-06 21:15:00,81.0,73.0,30.09,South,169,0.0,0.0,77,0.00,,,0.00,,2013-07-07 01:15:00,
2013-07-06 21:25:00,80.0,72.0,30.09,South,169,0.0,3.0,77,0.00,,,0.00,,2013-07-07 01:25:00,
2013-07-06 21:34:00,80.0,72.0,30.09,South,169,0.0,3.0,77,0.00,,,0.00,,2013-07-07 01:34:00,
2013-07-06 21:45:00,80.0,72.0,30.09,South,169,0.0,3.0,77,0.00,,,0.00,,2013-07-07 01:45:00,
2013-07-06 22:01:00,79.0,71.0,30.10,SE,143,0.0,5.0,76,0.00,,,0.00,,2013-07-07 02:01:00,
2013-07-06 22:16:00,79.0,71.0,30.10,SE,143,0.0,5.0,76,0.00,,,0.00,,2013-07-07 02:16:00,
2013-07-06 22:22:00,79.0,71.0,30.10,SE,143,0.0,5.0,76,0.00,,,0.00,,2013-07-07 02:22:00,
2013-07-06 23:11:00,78.0,69.0,30.11,SSE,160,0.0,5.0,75,0.00,,,0.00,,2013-07-07 03:11:00,
2013-07-06 23:44:00,78.0,69.0,30.11,SSE,160,0.0,5.0,75,0.00,,,0.00,,2013-07-07 03:44:00,
2013-07-06 23:57:00,78.0,69.0,30.11,SSE,160,0.0,5.0,75,0.00,,,0.00,,2013-07-07 03:57:00,